Tracking 29892 objects as of 21-Nov-2024
HD Live streaming from Space Station
objects crossing your sky now

CZ-6A DEB

Track CZ-6A DEB now!
10-day predictions


NORAD ID: 54628
Int'l Code: 2022-151PE
Perigee: 834.4 km
Apogee: 1,104.6 km
Inclination: 98.9 °
Period: 104.3 minutes
Semi major axis: 7340 km
RCS: Unknown
Launch date: November 11, 2022
Source: People's Republic of China (PRC)
Launch site: Taiyaun Space Center, China (TSC)

Note: This is SATELLITE DEBRIS
Your satellite tracking list
Your tracking list is empty




NASA's NSSDC Master Catalog

Two Line Element Set (TLE):
1 54628U 22151PE  24325.60374653  .00000576  00000-0  51987-3 0  9997
2 54628  98.8744 292.2097 0184019 259.2008  98.8385 13.80430096100788
Source of the keplerian elements: AFSPC